| time (UTC) | temp F | wind direction | speed MPH | gust MPH | rain 1hr in | rain 24hr in | rain mn in | humidity % | barometer mb |
| 20260507051547 | 59 | 42 | 0.0 | 2.0 | 0.00 | 0.11 | 0.11 | 57 | |
| 20260507050047 | 59 | 42 | 0.0 | 1.0 | 0.00 | 0.11 | 0.11 | 56 | |
| 20260507044551 | 59 | 42 | 0.0 | 3.0 | 0.00 | 0.11 | 0.11 | 56 | |
| 20260507043051 | 59 | 56 | 0.0 | 2.0 | 0.00 | 0.11 | 0.11 | 56 | |
| 20260507041556 | 60 | 57 | 1.0 | 3.0 | 0.00 | 0.11 | 0.11 | 56 | |
| 20260507040059 | 60 | 60 | 0.0 | 2.0 | 0.00 | 0.11 | 0.11 | 56 | |
| 20260507034558 | 60 | 63 | 0.0 | 4.0 | 0.00 | 0.11 | 0.11 | 55 | |
| 20260507033003 | 60 | 34 | 1.0 | 4.0 | 0.00 | 0.11 | 0.11 | 54 | |
| 20260507031505 | 60 | 64 | 0.0 | 4.0 | 0.00 | 0.11 | 0.11 | 54 | |
| 20260507030012 | 61 | 37 | 1.0 | 3.0 | 0.00 | 0.11 | 0.11 | 55 | |
| 20260507024515 | 61 | 2 | 1.0 | 3.0 | 0.00 | 0.11 | 0.11 | 56 | |
| 20260507023017 | 62 | 67 | 0.0 | 4.0 | 0.00 | 0.11 | 0.11 | 56 | |
| 20260507021515 | 62 | 8 | 0.0 | 3.0 | 0.00 | 0.11 | 0.11 | 56 | |
| 20260507020016 | 62 | 20 | 0.0 | 2.0 | 0.00 | 0.11 | 0.11 | 55 | |
| 20260507014519 | 62 | 9 | 0.0 | 2.0 | 0.00 | 0.11 | 0.11 | 55 | |
| 20260507013026 | 62 | 21 | 0.0 | 2.0 | 0.00 | 0.11 | 0.11 | 55 | |
| 20260507011527 | 63 | 46 | 0.0 | 3.0 | 0.00 | 0.11 | 0.11 | 55 | |
| 20260507010027 | 63 | 56 | 0.0 | 2.0 | 0.00 | 0.11 | 0.11 | 54 | |
| 20260507004539 | 63 | 58 | 0.0 | 3.0 | 0.00 | 0.11 | 0.11 | 54 | |
| 20260507003037 | 64 | 70 | 1.0 | 4.0 | 0.00 | 0.11 | 0.11 | 54 | |
| 20260507001546 | 64 | 57 | 0.0 | 4.0 | 0.00 | 0.11 | 0.11 | 53 | |
| 20260507000049 | 65 | 54 | 0.0 | 3.0 | 0.00 | 0.11 | 0.11 | 53 | |
| 20260506234559 | 65 | 48 | 1.0 | 6.0 | 0.00 | 0.11 | 0.11 | 53 | |
| 20260506233052 | 66 | 16 | 2.0 | 4.0 | 0.00 | 0.11 | 0.11 | 52 | |
| 20260506231557 | 66 | 23 | 1.0 | 5.0 | 0.00 | 0.11 | 0.11 | 52 | |
| 20260506230057 | 66 | 40 | 1.0 | 4.0 | 0.00 | 0.11 | 0.11 | 54 | |
| 20260506224554 | 65 | 355 | 0.0 | 3.0 | 0.00 | 0.11 | 0.11 | 55 | |
| 20260506223058 | 65 | 2 | 1.0 | 3.0 | 0.00 | 0.11 | 0.11 | 56 | |
| 20260506221555 | 64 | 153 | 0.0 | 3.0 | 0.00 | 0.11 | 0.11 | 57 | |
| 20260506220055 | 62 | 90 | 0.0 | 3.0 | 0.00 | 0.11 | 0.11 | 58 | |
| 20260506214552 | 62 | 23 | 0.0 | 2.0 | 0.00 | 0.11 | 0.11 | 57 | |
| 20260506213113 | 61 | 40 | 1.0 | 3.0 | 0.00 | 0.11 | 0.11 | 58 | |
| 20260506211618 | 61 | 39 | 0.0 | 4.0 | 0.00 | 0.11 | 0.11 | 58 | |
| 20260506210104 | 61 | 29 | 1.0 | 2.0 | 0.00 | 0.11 | 0.11 | 58 | |
| 20260506204601 | 60 | 352 | 0.0 | 4.0 | 0.00 | 0.11 | 0.11 | 58 | |
| 20260506203105 | 60 | 64 | 1.0 | 4.0 | 0.00 | 0.11 | 0.11 | 58 | |
| 20260506201506 | 59 | 50 | 1.0 | 3.0 | 0.00 | 0.11 | 0.11 | 59 | |
| 20260506200005 | 59 | 350 | 0.0 | 2.0 | 0.00 | 0.11 | 0.11 | 61 | |
| 20260506194506 | 58 | 350 | 1.0 | 3.0 | 0.00 | 0.11 | 0.11 | 61 | |
| 20260506193010 | 57 | 350 | 0.0 | 3.0 | 0.00 | 0.11 | 0.11 | 61 | |
| 20260506191514 | 57 | 40 | 0.0 | 3.0 | 0.00 | 0.11 | 0.11 | 62 | |
| 20260506190016 | 57 | 42 | 0.0 | 2.0 | 0.00 | 0.11 | 0.11 | 63 | |
| 20260506184519 | 56 | 6 | 0.0 | 4.0 | 0.00 | 0.11 | 0.11 | 63 | |
| 20260506183030 | 56 | 60 | 1.0 | 6.0 | 0.00 | 0.11 | 0.11 | 65 | |
| 20260506181527 | 56 | 37 | 1.0 | 4.0 | 0.00 | 0.11 | 0.11 | 66 | |
| 20260506180035 | 55 | 19 | 0.0 | 5.0 | 0.00 | 0.11 | 0.11 | 66 | |
| 20260506174539 | 55 | 66 | 1.0 | 5.0 | 0.00 | 0.11 | 0.11 | 67 | |
| 20260506173038 | 54 | 53 | 0.0 | 4.0 | 0.00 | 0.11 | 0.11 | 66 | |
| 20260506171537 | 54 | 60 | 0.0 | 5.0 | 0.00 | 0.11 | 0.11 | 66 | |
| 20260506170041 | 54 | 58 | 1.0 | 5.0 | 0.00 | 0.11 | 0.11 | 66 | |
| 20260506164538 | 54 | 53 | 0.0 | 3.0 | 0.00 | 0.11 | 0.11 | 66 | |
| 20260506163048 | 54 | 316 | 0.0 | 2.0 | 0.00 | 0.11 | 0.11 | 65 | |
| 20260506161542 | 54 | 100 | 0.0 | 3.0 | 0.02 | 0.11 | 0.11 | 65 | |
| 20260506160044 | 54 | 37 | 0.0 | 3.0 | 0.10 | 0.11 | 0.11 | 65 | |
| 20260506154546 | 54 | 23 | 1.0 | 3.0 | 0.11 | 0.11 | 0.11 | 64 | |
| 20260506153047 | 54 | 31 | 0.0 | 2.0 | 0.11 | 0.11 | 0.11 | 64 | |
| 20260506151548 | 54 | 46 | 0.0 | 4.0 | 0.09 | 0.09 | 0.09 | 63 | |
| 20260506150050 | 54 | 262 | 0.0 | 4.0 | 0.01 | 0.01 | 0.01 | 62 | |
| 20260506144602 | 54 | 73 | 0.0 | 1.0 | 0.00 | 0.00 | 0.00 | 62 | |
| 20260506143108 | 54 | 65 | 0.0 | 5.0 | 0.00 | 0.00 | 0.00 | 62 | |
| 20260506141558 | 54 | 342 | 0.0 | 4.0 | 0.00 | 0.00 | 0.00 | 62 | |
| 20260506140002 | 53 | 356 | 0.0 | 3.0 | 0.00 | 0.00 | 0.00 | 62 | |
| 20260506134504 | 53 | 58 | 0.0 | 3.0 | 0.00 | 0.00 | 0.00 | 61 | |
| 20260506133008 | 53 | 127 | 0.0 | 3.0 | 0.00 | 0.00 | 0.00 | 61 | |
| 20260506131512 | 53 | 45 | 1.0 | 4.0 | 0.00 | 0.00 | 0.00 | 61 | |
| 20260506130013 | 54 | 60 | 1.0 | 5.0 | 0.00 | 0.00 | 0.00 | 60 | |
| 20260506124512 | 54 | 71 | 1.0 | 4.0 | 0.00 | 0.00 | 0.00 | 59 | |
| 20260506123011 | 54 | 74 | 1.0 | 4.0 | 0.00 | 0.00 | 0.00 | 58 | |
| 20260506121510 | 55 | 33 | 0.0 | 4.0 | 0.00 | 0.00 | 0.00 | 57 | |
| 20260506120007 | 55 | 229 | 0.0 | 7.0 | 0.00 | 0.00 | 0.00 | 56 | |
| 20260506114506 | 55 | 280 | 1.0 | 5.0 | 0.00 | 0.00 | 0.00 | 56 | |
| 20260506113016 | 55 | 48 | 0.0 | 5.0 | 0.00 | 0.00 | 0.00 | 56 | |
| 20260506111510 | 56 | 258 | 1.0 | 6.0 | 0.00 | 0.00 | 0.00 | 56 | |
| 20260506110013 | 56 | 57 | 1.0 | 3.0 | 0.00 | 0.00 | 0.00 | 56 | |
| 20260506104513 | 56 | 58 | 2.0 | 7.0 | 0.00 | 0.00 | 0.00 | 56 | |
| 20260506103014 | 57 | 109 | 1.0 | 3.0 | 0.00 | 0.00 | 0.00 | 56 | |
| 20260506101519 | 57 | 54 | 1.0 | 4.0 | 0.00 | 0.00 | 0.00 | 56 | |
| 20260506100016 | 57 | 242 | 1.0 | 4.0 | 0.00 | 0.00 | 0.00 | 56 | |
| 20260506094520 | 57 | 70 | 0.0 | 4.0 | 0.00 | 0.00 | 0.00 | 56 | |
| 20260506093018 | 58 | 359 | 0.0 | 3.0 | 0.00 | 0.00 | 0.00 | 56 | |
| 20260506091519 | 58 | 29 | 1.0 | 4.0 | 0.00 | 0.00 | 0.00 | 56 | |
| 20260506090024 | 59 | 60 | 0.0 | 2.0 | 0.00 | 0.00 | 0.00 | 57 | |
| 20260506084520 | 59 | 205 | 0.0 | 3.0 | 0.00 | 0.00 | 0.00 | 57 | |
| 20260506083015 | 59 | 31 | 1.0 | 3.0 | 0.00 | 0.00 | 0.00 | 57 | |
| 20260506081513 | 59 | 273 | 0.0 | 2.0 | 0.00 | 0.00 | 0.00 | 57 | |
| 20260506073017 | 60 | 63 | 0.0 | 3.0 | 0.00 | 0.00 | 0.00 | 57 | |
| 20260506071519 | 60 | 64 | 0.0 | 2.0 | 0.00 | 0.00 | 0.00 | 58 | |
| 20260506061542 | 61 | 19 | 0.0 | 3.0 | 0.00 | 0.00 | 0.00 | 58 |